Location: Katzenstein
(51.7484°N, 10.2155°E)
Time: 14:32:45
(UTC+00:00)

STARLINK-1193 - Pass Details

Date: 17 February 2020
Orbit: 374 x 385 km, 53.0° (Epoch: 08 April)

Event Time Altitude Azimuth Distance (km) Brightness Sun altitude
Exits shadow 03:37:02 18° 76° (ENE) 1,023 5.8 -27.4°
Drops below altitude 10° 03:37:58 10° 76° (ENE) 1,402 6.7 -27.2°
Enters shadow 04:32:59 -70° 264° (W) 12,402 10.5 -18.8°
Maximum altitude 05:10:47 68° 3° (N) 416 3.0 -13.0°
